Location: Hemaruka
(51.7801°N, 111.0917°W)
Time: 06:46:19
(UTC+00:00)

NOAA 15 - Pass Details

Date: 16 December 2023
Orbit: 797 x 810 km, 98.6° (Epoch: 04 March)

Event Time Altitude Azimuth Distance (km) Brightness Sun altitude
Rises 13:26:13 0° 32° (NNE) 3,317 8.0 -17.2°
Reaches altitude 10° 13:31:11 10° 74° (ENE) 2,376 7.9 -16.4°
Maximum altitude 13:31:58 10° 82° (E) 2,354 8.0 -16.3°
Drops below altitude 10° 13:32:44 10° 91° (E) 2,373 8.2 -16.2°
Sets 13:37:40 0° 132° (SE) 3,294 9.0 -15.5°
